Check out our new BloomSky Weather System.

Active alerts


No alerts


Thunder radar  blitzortung!


Rain radar more information rain snow radar


Visit our other weather sites:

Template documentation
and downloads

And another site



Weather Underground History page Text

Daily Summary for November 3, 2017 Units:  English    Metric   Both
« Previous Day
Next Day »
Daily Weekly Monthly Yearly Custom
  High: Low: Average:
Temperature: TemperatureF °F 74.1 °F 78.9 °F
Dew Point: DewpointF °F 71.6 °F 74.1 °F
Humidity: Humidity % 60 % 86 %
Wind Speed: WindSpeedMPH mph 0.0 mph 2.8 mph
Wind Gust: WindSpeedGustMPH mph - -
Wind:- - SSE
Pressure: PressureIn in 29.98 in -
Precipitation: 0.00 in    
Historical Graphs
 
 
Tabular Data for November 3, 2017
Time Temperature Dew Point Pressure Wind Wind Speed Wind Gust Humidity Rainfall Rate (Hourly)
TemperatureF °F DewpointF °F PressureIn in Calm     Humidity % HourlyPrecipIn in
00:04 75.9 °F 74.3 °F 30.02 in SSW 3.0 mph 7.0 mph 95 % 0.00 in
00:09 75.9 °F 74.3 °F 30.02 in SE 6.0 mph 7.0 mph 95 % 0.00 in
00:14 75.9 °F 74.3 °F 30.02 in SSE 3.0 mph 8.0 mph 95 % 0.00 in
00:19 75.9 °F 74.3 °F 30.02 in SSE 3.0 mph 8.0 mph 95 % 0.00 in
00:24 75.7 °F 74.1 °F 30.02 in SSE 3.0 mph 8.0 mph 95 % 0.00 in
00:29 75.7 °F 74.1 °F 30.02 in SSE 3.0 mph 7.0 mph 95 % 0.00 in
00:34 75.7 °F 74.1 °F 30.02 in South 3.0 mph 7.0 mph 95 % 0.00 in
00:40 75.7 °F 74.1 °F 30.02 in South 3.0 mph 7.0 mph 95 % 0.00 in
00:44 75.6 °F 73.9 °F 30.02 in SSE 3.0 mph 7.0 mph 95 % 0.00 in
00:50 75.6 °F 73.9 °F 30.02 in SSE 3.0 mph 6.0 mph 95 % 0.00 in
00:55 75.6 °F 73.9 °F 30.02 in SSW 4.0 mph 6.0 mph 95 % 0.00 in
01:00 75.4 °F 73.8 °F 30.02 in SE 4.0 mph 7.0 mph 95 % 0.00 in
01:05 75.4 °F 74.1 °F 30.02 in SE 2.0 mph 7.0 mph 96 % 0.00 in
01:10 75.4 °F 74.1 °F 30.01 in SE 2.0 mph 7.0 mph 96 % 0.00 in
01:15 75.4 °F 74.1 °F 30.01 in SSW 4.0 mph 7.0 mph 96 % 0.00 in
01:20 75.4 °F 74.1 °F 30.01 in South 4.0 mph 5.0 mph 96 % 0.00 in
01:25 75.4 °F 74.1 °F 30.01 in ESE 3.0 mph 7.0 mph 96 % 0.00 in
01:30 75.4 °F 74.1 °F 30.01 in South 3.0 mph 7.0 mph 96 % 0.00 in
01:35 75.4 °F 74.1 °F 30.01 in SSE 3.0 mph 7.0 mph 96 % 0.00 in
01:40 75.4 °F 74.1 °F 30.01 in South 4.0 mph 7.0 mph 96 % 0.00 in
01:45 75.6 °F 74.3 °F 30.02 in SSE 3.0 mph 9.0 mph 96 % 0.00 in
01:50 75.6 °F 74.3 °F 30.01 in SSE 2.0 mph 9.0 mph 96 % 0.00 in
01:55 75.6 °F 74.3 °F 30.01 in SE 5.0 mph 9.0 mph 96 % 0.00 in
02:00 75.7 °F 74.5 °F 30.01 in SSE 3.0 mph 8.0 mph 96 % 0.00 in
02:05 75.7 °F 74.5 °F 30.01 in SSE 2.0 mph 7.0 mph 96 % 0.00 in
02:10 75.7 °F 74.5 °F 30.01 in SE 3.0 mph 7.0 mph 96 % 0.00 in
02:15 75.7 °F 74.5 °F 30.01 in South 7.0 mph 9.0 mph 96 % 0.00 in
02:20 75.9 °F 74.3 °F 30.01 in SSE 6.0 mph 10.0 mph 95 % 0.00 in
02:25 75.9 °F 74.3 °F 30.01 in South 6.0 mph 10.0 mph 95 % 0.00 in
02:30 75.9 °F 74.3 °F 30.01 in South 2.0 mph 10.0 mph 95 % 0.00 in
02:35 75.9 °F 74.3 °F 30.01 in SE 3.0 mph 9.0 mph 95 % 0.00 in
02:40 75.9 °F 74.3 °F 30.01 in South 3.0 mph 6.0 mph 95 % 0.00 in
02:45 75.9 °F 74.3 °F 30.01 in SSE 4.0 mph 7.0 mph 95 % 0.00 in
02:50 76.1 °F 74.5 °F 30.01 in South 4.0 mph 7.0 mph 95 % 0.00 in
02:55 76.1 °F 74.5 °F 30.01 in SE 6.0 mph 8.0 mph 95 % 0.00 in
03:00 75.9 °F 74.3 °F 30.01 in SE 2.0 mph 8.0 mph 95 % 0.00 in
03:05 75.9 °F 74.3 °F 30.01 in SSW 3.0 mph 8.0 mph 95 % 0.00 in
03:10 75.9 °F 74.3 °F 30.01 in South 3.0 mph 7.0 mph 95 % 0.00 in
03:15 75.9 °F 74.3 °F 30.01 in SE 2.0 mph 7.0 mph 95 % 0.00 in
03:20 75.9 °F 74.3 °F 30.01 in SSW 6.0 mph 7.0 mph 95 % 0.00 in
03:25 75.9 °F 74.3 °F 30.01 in SSE 3.0 mph 7.0 mph 95 % 0.00 in
03:30 75.9 °F 74.3 °F 30.01 in SSE 2.0 mph 6.0 mph 95 % 0.00 in
03:35 75.7 °F 74.1 °F 30.01 in SSE 3.0 mph 6.0 mph 95 % 0.00 in
03:40 75.7 °F 74.5 °F 30.01 in SSE 2.0 mph 6.0 mph 96 % 0.00 in
03:45 75.7 °F 74.5 °F 30.01 in SSE 4.0 mph 6.0 mph 96 % 0.00 in
03:50 75.7 °F 74.5 °F 30.01 in SE 2.0 mph 6.0 mph 96 % 0.00 in
03:55 75.7 °F 74.5 °F 30.01 in SSE 4.0 mph 6.0 mph 96 % 0.00 in
04:00 75.7 °F 74.5 °F 30.01 in SSW 3.0 mph 6.0 mph 96 % 0.00 in
04:05 75.6 °F 74.3 °F 30.01 in SE 2.0 mph 5.0 mph 96 % 0.00 in
04:10 75.6 °F 74.3 °F 30.01 in SSE 2.0 mph 5.0 mph 96 % 0.00 in
04:16 75.4 °F 74.1 °F 30.01 in SE 2.0 mph 4.0 mph 96 % 0.00 in
04:21 75.4 °F 74.1 °F 30.01 in SSE 3.0 mph 5.0 mph 96 % 0.00 in
04:26 75.4 °F 74.1 °F 30.01 in SE 1.0 mph 5.0 mph 96 % 0.00 in
04:31 75.2 °F 73.9 °F 30.01 in SSE 2.0 mph 5.0 mph 96 % 0.00 in
04:36 75.2 °F 73.9 °F 30.01 in South 2.0 mph 4.0 mph 96 % 0.00 in
04:41 75.0 °F 73.8 °F 30.01 in SE 2.0 mph 4.0 mph 96 % 0.00 in
04:46 75.0 °F 73.8 °F 30.01 in SSE 1.0 mph 4.0 mph 96 % 0.00 in
04:51 75.0 °F 73.8 °F 30.01 in SE 1.0 mph 4.0 mph 96 % 0.00 in
04:56 75.0 °F 73.8 °F 30.02 in South 2.0 mph 4.0 mph 96 % 0.00 in
05:01 74.8 °F 73.6 °F 30.02 in SSE 1.0 mph 4.0 mph 96 % 0.00 in
05:06 74.8 °F 73.6 °F 30.02 in SSE 1.0 mph 4.0 mph 96 % 0.00 in
05:11 74.8 °F 73.6 °F 30.02 in Calm   4.0 mph 96 % 0.00 in
05:16 74.8 °F 73.9 °F 30.02 in SE 1.0 mph 3.0 mph 97 % 0.00 in
05:21 74.8 °F 73.9 °F 30.02 in SE 1.0 mph 3.0 mph 97 % 0.00 in
05:26 74.7 °F 73.8 °F 30.02 in SSE 2.0 mph 2.0 mph 97 % 0.00 in
05:31 74.7 °F 73.8 °F 30.03 in SE 1.0 mph 2.0 mph 97 % 0.00 in
05:36 74.7 °F 73.8 °F 30.03 in Calm   2.0 mph 97 % 0.00 in
05:46 74.7 °F 73.8 °F 30.03 in SE 1.0 mph 2.0 mph 97 % 0.00 in
05:51 74.7 °F 73.8 °F 30.03 in SE 1.0 mph 2.0 mph 97 % 0.00 in
05:56 74.7 °F 73.8 °F 30.03 in SE 1.0 mph 2.0 mph 97 % 0.00 in
06:01 74.7 °F 73.8 °F 30.03 in SSE 1.0 mph 2.0 mph 97 % 0.00 in
06:06 74.7 °F 73.8 °F 30.03 in SE 1.0 mph 2.0 mph 97 % 0.00 in
06:11 74.7 °F 73.8 °F 30.03 in Calm   3.0 mph 97 % 0.00 in
06:16 74.5 °F 73.6 °F 30.03 in Calm   3.0 mph 97 % 0.00 in
06:21 74.7 °F 73.8 °F 30.03 in Calm   3.0 mph 97 % 0.00 in
06:26 74.7 °F 73.8 °F 30.03 in SE 2.0 mph 2.0 mph 97 % 0.00 in
06:31 74.5 °F 73.6 °F 30.03 in SSE 2.0 mph 3.0 mph 97 % 0.00 in
06:36 74.5 °F 73.6 °F 30.03 in SE 1.0 mph 3.0 mph 97 % 0.00 in
06:41 74.5 °F 73.6 °F 30.03 in Calm   3.0 mph 97 % 0.00 in
06:46 74.5 °F 73.6 °F 30.03 in Calm   2.0 mph 97 % 0.00 in
06:48 74.5 °F 73.6 °F 30.03 in Calm   2.0 mph 97 % 0.00 in
06:53 74.1 °F 73.2 °F 30.03 in South 1.0 mph 2.0 mph 97 % 0.00 in
06:58 74.1 °F 73.2 °F 30.04 in South 1.0 mph 2.0 mph 97 % 0.00 in
07:03 74.1 °F 73.6 °F 30.04 in SSE 1.0 mph 2.0 mph 98 % 0.00 in
07:08 74.3 °F 73.8 °F 30.04 in Calm   2.0 mph 98 % 0.00 in
07:13 74.3 °F 73.8 °F 30.04 in Calm   2.0 mph 98 % 0.00 in
07:18 74.3 °F 73.8 °F 30.04 in Calm   2.0 mph 98 % 0.00 in
07:23 74.1 °F 73.6 °F 30.04 in Calm   2.0 mph 98 % 0.00 in
07:28 74.1 °F 73.6 °F 30.04 in Calm   1.0 mph 98 % 0.00 in
07:33 74.1 °F 73.6 °F 30.05 in Calm   1.0 mph 98 % 0.00 in
07:38 74.1 °F 73.6 °F 30.05 in Calm   1.0 mph 98 % 0.00 in
07:43 74.1 °F 73.6 °F 30.05 in Calm   2.0 mph 98 % 0.00 in
07:48 74.3 °F 73.8 °F 30.05 in Calm   2.0 mph 98 % 0.00 in
07:53 74.5 °F 73.9 °F 30.05 in Calm   2.0 mph 98 % 0.00 in
07:58 74.3 °F 73.8 °F 30.06 in SSW 1.0 mph 2.0 mph 98 % 0.00 in
08:03 74.5 °F 73.9 °F 30.05 in Calm   2.0 mph 98 % 0.00 in
08:08 74.5 °F 73.9 °F 30.06 in SSE 1.0 mph 2.0 mph 98 % 0.00 in
08:13 74.5 °F 73.9 °F 30.06 in SE 2.0 mph 3.0 mph 98 % 0.00 in
08:18 74.7 °F 74.1 °F 30.06 in ESE 3.0 mph 3.0 mph 98 % 0.00 in
08:23 74.7 °F 74.1 °F 30.06 in Calm   3.0 mph 98 % 0.00 in
08:28 74.8 °F 74.3 °F 30.06 in SE 2.0 mph 3.0 mph 98 % 0.00 in
08:33 74.8 °F 74.3 °F 30.06 in SSE 1.0 mph 3.0 mph 98 % 0.00 in
08:38 75.0 °F 74.5 °F 30.06 in Calm   2.0 mph 98 % 0.00 in
08:43 75.4 °F 74.8 °F 30.06 in ESE 2.0 mph 3.0 mph 98 % 0.00 in
08:48 75.6 °F 75.0 °F 30.07 in South 1.0 mph 3.0 mph 98 % 0.00 in
08:53 75.7 °F 74.8 °F 30.07 in SSE 2.0 mph 3.0 mph 97 % 0.00 in
08:58 75.9 °F 75.0 °F 30.07 in SSE 3.0 mph 3.0 mph 97 % 0.00 in
09:03 75.9 °F 75.0 °F 30.07 in SSE 2.0 mph 3.0 mph 97 % 0.00 in
09:08 76.1 °F 74.8 °F 30.07 in SSE 2.0 mph 3.0 mph 96 % 0.00 in
09:13 76.1 °F 74.8 °F 30.07 in SSE 2.0 mph 4.0 mph 96 % 0.00 in
09:18 76.3 °F 75.0 °F 30.08 in ESE 1.0 mph 4.0 mph 96 % 0.00 in
09:23 76.5 °F 75.2 °F 30.08 in SSE 1.0 mph 4.0 mph 96 % 0.00 in
09:28 76.5 °F 75.2 °F 30.08 in SSE 2.0 mph 4.0 mph 96 % 0.00 in
09:34 76.6 °F 75.4 °F 30.08 in ESE 1.0 mph 4.0 mph 96 % 0.00 in
09:39 77.4 °F 76.1 °F 30.08 in SSE 4.0 mph 5.0 mph 96 % 0.00 in
09:44 77.5 °F 75.7 °F 30.08 in ESE 3.0 mph 5.0 mph 94 % 0.00 in
09:49 77.7 °F 75.9 °F 30.08 in SSE 3.0 mph 5.0 mph 94 % 0.00 in
09:54 78.1 °F 76.3 °F 30.08 in SSE 4.0 mph 5.0 mph 94 % 0.00 in
09:59 78.1 °F 75.9 °F 30.08 in SSE 4.0 mph 6.0 mph 93 % 0.00 in
10:04 78.3 °F 76.1 °F 30.08 in SSE 4.0 mph 6.0 mph 93 % 0.00 in
10:09 78.4 °F 75.9 °F 30.08 in SSE 4.0 mph 7.0 mph 92 % 0.00 in
10:14 78.6 °F 76.1 °F 30.08 in ESE 4.0 mph 7.0 mph 92 % 0.00 in
10:19 79.0 °F 76.1 °F 30.08 in SSE 4.0 mph 7.0 mph 91 % 0.00 in
10:24 79.0 °F 76.1 °F 30.08 in SSE 2.0 mph 7.0 mph 91 % 0.00 in
10:29 79.2 °F 76.3 °F 30.08 in South 4.0 mph 7.0 mph 91 % 0.00 in
10:34 79.3 °F 76.5 °F 30.09 in South 4.0 mph 7.0 mph 91 % 0.00 in
10:39 79.3 °F 76.1 °F 30.09 in ESE 4.0 mph 7.0 mph 90 % 0.00 in
10:44 79.5 °F 75.9 °F 30.09 in SSE 4.0 mph 9.0 mph 89 % 0.00 in
10:49 79.5 °F 75.9 °F 30.09 in SSE 3.0 mph 9.0 mph 89 % 0.00 in
10:54 79.7 °F 76.5 °F 30.09 in SSE 4.0 mph 9.0 mph 90 % 0.00 in
10:59 79.9 °F 76.3 °F 30.09 in ESE 2.0 mph 7.0 mph 89 % 0.00 in
11:04 80.2 °F 76.3 °F 30.09 in SSW 3.0 mph 7.0 mph 88 % 0.00 in
11:09 80.4 °F 76.5 °F 30.09 in South 5.0 mph 7.0 mph 88 % 0.00 in
11:14 80.8 °F 76.8 °F 30.09 in ESE 2.0 mph 7.0 mph 88 % 0.00 in
11:19 80.8 °F 76.5 °F 30.09 in SE 3.0 mph 7.0 mph 87 % 0.00 in
11:24 80.8 °F 76.3 °F 30.09 in South 4.0 mph 7.0 mph 86 % 0.00 in
11:29 80.8 °F 76.5 °F 30.09 in South 4.0 mph 7.0 mph 87 % 0.00 in
11:34 80.8 °F 76.5 °F 30.09 in SSW 2.0 mph 7.0 mph 87 % 0.00 in
11:39 81.0 °F 76.5 °F 30.09 in South 4.0 mph 7.0 mph 86 % 0.00 in
11:44 81.1 °F 76.5 °F 30.09 in SSW 4.0 mph 7.0 mph 86 % 0.00 in
11:50 81.3 °F 76.5 °F 30.08 in South 4.0 mph 6.0 mph 85 % 0.00 in
11:55 81.3 °F 76.5 °F 30.08 in SSE 3.0 mph 6.0 mph 85 % 0.00 in
11:56 81.3 °F 76.5 °F 30.08 in SE 3.0 mph 5.0 mph 85 % 0.00 in
12:01 81.5 °F 76.3 °F 30.08 in South 4.0 mph 6.0 mph 84 % 0.00 in
12:06 81.9 °F 76.5 °F 30.08 in SSW 5.0 mph 8.0 mph 84 % 0.00 in
12:11 82.2 °F 76.5 °F 30.08 in SSW 2.0 mph 10.0 mph 83 % 0.00 in
12:16 82.6 °F 76.5 °F 30.07 in SE 4.0 mph 10.0 mph 82 % 0.00 in
12:21 82.8 °F 76.6 °F 30.07 in SSW 3.0 mph 10.0 mph 82 % 0.00 in
12:26 83.5 °F 77.4 °F 30.07 in South 5.0 mph 6.0 mph 82 % 0.00 in
12:31 83.7 °F 76.5 °F 30.07 in SE 4.0 mph 9.0 mph 79 % 0.00 in
12:36 84.0 °F 76.8 °F 30.07 in South 2.0 mph 9.0 mph 79 % 0.00 in
12:41 84.2 °F 76.6 °F 30.06 in SSW 4.0 mph 9.0 mph 78 % 0.00 in
12:46 84.0 °F 76.8 °F 30.06 in SE 2.0 mph 8.0 mph 79 % 0.00 in
12:51 84.2 °F 77.0 °F 30.06 in South 3.0 mph 8.0 mph 79 % 0.00 in
12:56 84.7 °F 77.2 °F 30.06 in SW 1.0 mph 8.0 mph 78 % 0.00 in
13:01 84.7 °F 76.6 °F 30.06 in SSW 2.0 mph 8.0 mph 77 % 0.00 in
13:06 84.7 °F 76.6 °F 30.05 in SSW 4.0 mph 8.0 mph 77 % 0.00 in
13:11 84.7 °F 77.2 °F 30.05 in SE 1.0 mph 8.0 mph 78 % 0.00 in
13:16 85.3 °F 76.5 °F 30.04 in SE 5.0 mph 7.0 mph 75 % 0.00 in
13:21 85.5 °F 76.6 °F 30.04 in SSE 4.0 mph 7.0 mph 75 % 0.00 in
13:26 85.6 °F 76.5 °F 30.04 in SSE 4.0 mph 8.0 mph 74 % 0.00 in
13:31 85.6 °F 75.9 °F 30.04 in WSW 2.0 mph 8.0 mph 73 % 0.00 in
13:36 86.5 °F 75.9 °F 30.03 in SSW 4.0 mph 8.0 mph 71 % 0.00 in
13:41 86.7 °F 75.7 °F 30.03 in South 4.0 mph 7.0 mph 70 % 0.00 in
13:46 86.4 °F 75.9 °F 30.03 in South 1.0 mph 6.0 mph 71 % 0.00 in
13:51 86.0 °F 74.1 °F 30.03 in SW 2.0 mph 6.0 mph 68 % 0.00 in
13:56 85.6 °F 74.3 °F 30.02 in South 2.0 mph 7.0 mph 69 % 0.00 in
14:01 85.6 °F 74.7 °F 30.02 in SSW 4.0 mph 7.0 mph 70 % 0.00 in
14:06 85.6 °F 73.4 °F 30.02 in South 4.0 mph 8.0 mph 67 % 0.00 in
14:12 85.8 °F 74.5 °F 30.02 in SSW 3.0 mph 8.0 mph 69 % 0.00 in
14:17 86.4 °F 74.1 °F 30.02 in South 3.0 mph 9.0 mph 67 % 0.00 in
14:22 87.1 °F 75.7 °F 30.02 in South 2.0 mph 9.0 mph 69 % 0.00 in
14:27 87.6 °F 74.8 °F 30.01 in South 5.0 mph 10.0 mph 66 % 0.00 in
14:32 88.3 °F 75.6 °F 30.01 in South 4.0 mph 10.0 mph 66 % 0.00 in
14:37 88.9 °F 75.2 °F 30.01 in SSW 2.0 mph 10.0 mph 64 % 0.00 in
14:42 88.5 °F 74.3 °F 30.01 in SSE 4.0 mph 9.0 mph 63 % 0.00 in
14:47 88.5 °F 74.3 °F 30.01 in SSW 3.0 mph 10.0 mph 63 % 0.00 in
14:52 88.5 °F 73.4 °F 30.01 in ESE 3.0 mph 10.0 mph 61 % 0.00 in
14:57 88.2 °F 73.4 °F 30.01 in South 4.0 mph 10.0 mph 62 % 0.00 in
15:02 87.6 °F 73.0 °F 30.00 in SE 4.0 mph 9.0 mph 62 % 0.00 in
15:07 87.6 °F 73.4 °F 30.00 in SSW 1.0 mph 9.0 mph 63 % 0.00 in
15:12 88.2 °F 73.4 °F 30.00 in SSE 3.0 mph 9.0 mph 62 % 0.00 in
15:17 88.5 °F 73.4 °F 30.00 in SSW 5.0 mph 7.0 mph 61 % 0.00 in
15:22 88.3 °F 73.2 °F 30.00 in SE 6.0 mph 8.0 mph 61 % 0.00 in
15:27 87.8 °F 72.1 °F 30.00 in SE 3.0 mph 9.0 mph 60 % 0.00 in
15:32 87.8 °F 73.2 °F 29.99 in South 5.0 mph 9.0 mph 62 % 0.00 in
15:37 88.0 °F 72.9 °F 29.99 in Calm   9.0 mph 61 % 0.00 in
15:42 88.3 °F 73.6 °F 29.99 in SSE 2.0 mph 9.0 mph 62 % 0.00 in
15:47 88.2 °F 73.0 °F 29.99 in South 4.0 mph 9.0 mph 61 % 0.00 in
15:52 88.2 °F 73.4 °F 29.99 in SE 4.0 mph 11.0 mph 62 % 0.00 in
15:57 88.2 °F 74.5 °F 29.99 in SSW 1.0 mph 11.0 mph 64 % 0.00 in
16:02 88.5 °F 74.3 °F 29.99 in South 5.0 mph 11.0 mph 63 % 0.00 in
16:07 88.0 °F 73.4 °F 29.99 in SSE 4.0 mph 8.0 mph 62 % 0.00 in
16:12 87.6 °F 73.4 °F 29.99 in SE 5.0 mph 8.0 mph 63 % 0.00 in
16:17 87.6 °F 73.4 °F 29.99 in SW 3.0 mph 8.0 mph 63 % 0.00 in
16:22 88.0 °F 73.8 °F 29.99 in SSE 6.0 mph 8.0 mph 63 % 0.00 in
16:27 87.8 °F 73.6 °F 29.99 in SE 7.0 mph 8.0 mph 63 % 0.00 in
16:32 87.4 °F 73.2 °F 29.99 in SE 2.0 mph 10.0 mph 63 % 0.00 in
16:37 87.3 °F 73.0 °F 29.99 in SE 6.0 mph 10.0 mph 63 % 0.00 in
16:42 87.3 °F 73.0 °F 29.99 in South 3.0 mph 10.0 mph 63 % 0.00 in
16:47 87.3 °F 73.6 °F 29.99 in SSW 7.0 mph 10.0 mph 64 % 0.00 in
16:52 87.1 °F 72.9 °F 29.98 in SE 7.0 mph 8.0 mph 63 % 0.00 in
16:58 86.9 °F 72.9 °F 29.98 in SSE 5.0 mph 8.0 mph 63 % 0.00 in
17:03 86.7 °F 71.6 °F 29.98 in SSE 3.0 mph 9.0 mph 61 % 0.00 in
17:08 86.5 °F 72.5 °F 29.98 in South 5.0 mph 9.0 mph 63 % 0.00 in
17:13 86.4 °F 72.7 °F 29.98 in SSE 4.0 mph 9.0 mph 64 % 0.00 in
17:18 86.2 °F 73.0 °F 29.98 in South 3.0 mph 9.0 mph 65 % 0.00 in
17:23 86.0 °F 73.2 °F 29.98 in ESE 5.0 mph 9.0 mph 66 % 0.00 in
17:28 85.8 °F 73.6 °F 29.98 in SSW 2.0 mph 8.0 mph 67 % 0.00 in
17:33 85.6 °F 73.9 °F 29.98 in SE 3.0 mph 8.0 mph 68 % 0.00 in
17:38 85.5 °F 73.8 °F 29.98 in SSE 2.0 mph 7.0 mph 68 % 0.00 in
17:43 85.1 °F 73.4 °F 29.98 in South 2.0 mph 7.0 mph 68 % 0.00 in
17:48 84.9 °F 73.2 °F 29.98 in SE 4.0 mph 7.0 mph 68 % 0.00 in
17:53 84.7 °F 73.4 °F 29.98 in SSW 3.0 mph 7.0 mph 69 % 0.00 in
17:58 84.6 °F 73.2 °F 29.99 in SSE 3.0 mph 7.0 mph 69 % 0.00 in
18:03 84.4 °F 73.6 °F 29.99 in SSE 4.0 mph 7.0 mph 70 % 0.00 in
18:08 84.0 °F 73.9 °F 29.99 in ESE 5.0 mph 10.0 mph 72 % 0.00 in
18:13 83.8 °F 74.7 °F 29.99 in SE 7.0 mph 10.0 mph 74 % 0.00 in
18:18 83.5 °F 74.7 °F 29.99 in SSE 3.0 mph 10.0 mph 75 % 0.00 in
18:23 83.1 °F 74.8 °F 29.99 in SSE 4.0 mph 9.0 mph 76 % 0.00 in
18:28 82.9 °F 74.7 °F 29.99 in SE 7.0 mph 8.0 mph 76 % 0.00 in
18:38 82.2 °F 74.7 °F 29.99 in SSW 5.0 mph 12.0 mph 78 % 0.00 in
18:43 81.9 °F 74.7 °F 29.99 in SSE 7.0 mph 12.0 mph 79 % 0.00 in
18:48 81.7 °F 74.8 °F 30.00 in ESE 8.0 mph 11.0 mph 80 % 0.00 in
18:53 81.3 °F 74.5 °F 30.00 in SE 4.0 mph 11.0 mph 80 % 0.00 in
18:58 81.3 °F 74.8 °F 30.00 in SE 3.0 mph 11.0 mph 81 % 0.00 in
19:03 81.1 °F 74.7 °F 30.00 in SSE 4.0 mph 10.0 mph 81 % 0.00 in
19:08 81.0 °F 75.0 °F 30.00 in South 4.0 mph 9.0 mph 82 % 0.00 in
19:13 80.8 °F 74.8 °F 30.00 in SE 2.0 mph 9.0 mph 82 % 0.00 in
19:18 80.4 °F 74.8 °F 30.00 in ESE 3.0 mph 9.0 mph 83 % 0.00 in
19:23 80.2 °F 74.7 °F 30.01 in South 3.0 mph 9.0 mph 83 % 0.00 in
19:28 80.1 °F 74.8 °F 30.01 in South 2.0 mph 9.0 mph 84 % 0.00 in
19:33 79.9 °F 74.7 °F 30.01 in SSE 3.0 mph 6.0 mph 84 % 0.00 in
19:38 79.9 °F 74.7 °F 30.01 in SSE 5.0 mph 6.0 mph 84 % 0.00 in
19:43 80.1 °F 74.8 °F 30.01 in East 3.0 mph 7.0 mph 84 % 0.00 in
19:48 80.1 °F 74.5 °F 30.01 in South 2.0 mph 7.0 mph 83 % 0.00 in
19:53 79.9 °F 74.3 °F 30.01 in SSE 3.0 mph 7.0 mph 83 % 0.00 in
19:59 79.7 °F 74.1 °F 30.01 in ESE 6.0 mph 7.0 mph 83 % 0.00 in
20:04 79.5 °F 73.9 °F 30.01 in South 3.0 mph 7.0 mph 83 % 0.00 in
20:09 79.5 °F 74.3 °F 30.02 in SSE 4.0 mph 7.0 mph 84 % 0.00 in
20:10 79.3 °F 74.1 °F 30.01 in South 3.0 mph 7.0 mph 84 % 0.00 in
20:15 79.2 °F 73.9 °F 30.02 in SSE 3.0 mph 7.0 mph 84 % 0.00 in
20:20 79.2 °F 74.3 °F 30.02 in SE 3.0 mph 7.0 mph 85 % 0.00 in
20:25 79.0 °F 74.1 °F 30.02 in East 6.0 mph 7.0 mph 85 % 0.00 in
20:30 78.8 °F 73.9 °F 30.02 in SSE 3.0 mph 10.0 mph 85 % 0.00 in
20:35 78.6 °F 74.1 °F 30.02 in SE 2.0 mph 10.0 mph 86 % 0.00 in
20:40 78.6 °F 74.1 °F 30.02 in South 3.0 mph 10.0 mph 86 % 0.00 in
20:45 78.4 °F 73.9 °F 30.03 in ESE 4.0 mph 9.0 mph 86 % 0.00 in
20:50 78.4 °F 73.9 °F 30.02 in SSE 4.0 mph 7.0 mph 86 % 0.00 in
20:55 78.3 °F 74.1 °F 30.03 in SSE 3.0 mph 7.0 mph 87 % 0.00 in
21:00 78.3 °F 74.1 °F 30.03 in South 2.0 mph 5.0 mph 87 % 0.00 in
21:05 78.1 °F 73.9 °F 30.03 in SE 2.0 mph 5.0 mph 87 % 0.00 in
21:10 77.7 °F 73.6 °F 30.03 in East 3.0 mph 5.0 mph 87 % 0.00 in
21:15 77.7 °F 73.9 °F 30.03 in SSE 2.0 mph 6.0 mph 88 % 0.00 in
21:20 77.5 °F 73.8 °F 30.03 in SSE 1.0 mph 6.0 mph 88 % 0.00 in
21:25 77.4 °F 73.6 °F 30.03 in South 1.0 mph 6.0 mph 88 % 0.00 in
21:30 77.4 °F 73.9 °F 30.03 in SSE 4.0 mph 5.0 mph 89 % 0.00 in
21:35 77.2 °F 73.8 °F 30.03 in SSE 3.0 mph 5.0 mph 89 % 0.00 in
21:40 77.0 °F 73.6 °F 30.04 in ESE 3.0 mph 6.0 mph 89 % 0.00 in
21:45 76.8 °F 73.4 °F 30.04 in SSE 1.0 mph 6.0 mph 89 % 0.00 in
21:50 76.6 °F 73.2 °F 30.04 in SSE 3.0 mph 6.0 mph 89 % 0.00 in
21:52 76.6 °F 73.2 °F 30.04 in SSE 3.0 mph 6.0 mph 89 % 0.00 in
21:57 76.6 °F 73.4 °F 30.04 in SSE 3.0 mph 6.0 mph 90 % 0.00 in
22:02 76.5 °F 73.2 °F 30.04 in SE 5.0 mph 6.0 mph 90 % 0.00 in
22:07 76.5 °F 73.2 °F 30.04 in SSW 2.0 mph 7.0 mph 90 % 0.00 in
22:12 76.5 °F 73.2 °F 30.04 in SE 4.0 mph 7.0 mph 90 % 0.00 in
22:17 76.3 °F 73.0 °F 30.04 in SE 2.0 mph 7.0 mph 90 % 0.00 in
22:21 76.3 °F 73.0 °F 30.04 in SSE 2.0 mph 6.0 mph 90 % 0.00 in
22:23 76.3 °F 73.0 °F 30.04 in SSE 2.0 mph 6.0 mph 90 % 0.00 in
22:26 76.1 °F 73.2 °F 30.04 in SE 1.0 mph 6.0 mph 91 % 0.00 in
22:28 76.1 °F 73.2 °F 30.04 in SE 2.0 mph 6.0 mph 91 % 0.00 in
22:30 76.1 °F 73.2 °F 30.04 in SE 3.0 mph 5.0 mph 91 % 0.00 in
22:35 76.1 °F 73.2 °F 30.04 in SE 3.0 mph 6.0 mph 91 % 0.00 in
22:40 75.9 °F 73.0 °F 30.04 in SSE 1.0 mph 6.0 mph 91 % 0.00 in
22:45 75.9 °F 73.0 °F 30.04 in SSE 1.0 mph 6.0 mph 91 % 0.00 in
22:50 75.7 °F 72.9 °F 30.04 in SE 1.0 mph 5.0 mph 91 % 0.00 in
22:55 75.6 °F 73.0 °F 30.04 in SSE 2.0 mph 4.0 mph 92 % 0.00 in
23:00 75.6 °F 73.0 °F 30.04 in SSE 2.0 mph 4.0 mph 92 % 0.00 in
23:05 75.6 °F 73.0 °F 30.04 in SSE 2.0 mph 4.0 mph 92 % 0.00 in
23:10 75.4 °F 72.9 °F 30.04 in South 1.0 mph 4.0 mph 92 % 0.00 in
23:15 75.2 °F 73.0 °F 30.04 in SE 1.0 mph 4.0 mph 93 % 0.00 in
23:20 75.0 °F 72.9 °F 30.04 in SE 1.0 mph 4.0 mph 93 % 0.00 in
23:25 75.0 °F 72.9 °F 30.04 in SE 2.0 mph 4.0 mph 93 % 0.00 in
23:30 74.8 °F 72.7 °F 30.04 in SE 3.0 mph 4.0 mph 93 % 0.00 in
23:35 74.8 °F 73.0 °F 30.04 in South 2.0 mph 4.0 mph 94 % 0.00 in
23:40 74.7 °F 72.9 °F 30.04 in Calm   3.0 mph 94 % 0.00 in
23:41 74.7 °F 72.9 °F 30.04 in SE 1.0 mph 3.0 mph 94 % 0.00 in
23:46 74.5 °F 72.7 °F 30.03 in SSE 1.0 mph 3.0 mph 94 % 0.00 in
23:51 74.5 °F 72.7 °F 30.04 in SSE 1.0 mph 3.0 mph 94 % 0.00 in
23:56 74.1 °F 72.3 °F 30.04 in South 2.0 mph 2.0 mph 94 % 0.00 in
Spring, Texas: Villages of Bridgestone
Compliments of Weather Underground - 3.25 mb

Script developed by  Jim McMurry - jmcmurry@mwt.net Adapted for the template by  Wim van der Kuil - Leuven-Template.eu

You find our weather info also at:

UK Metoffice

WeatherCloud

Weather Underground

Mid-South Weather Network

AWEKAS

Citizen Weather Observer Program (CWOP)

HAMweather, WeatherForYou, PWS Weather

Equipment we use:

Weather-station
Davis Vantage Vue

Weather-program
Meteohub

Weather-server
Debian 7.9 x86 (Guest)

Provider
DreamHost

Davis Vantage Vue

Meteohub

Debian 7.9 x86 (Guest)

DreamHost